Погода в Кашиас-ду-Сул

Бразилия     29°10′05″S   51°10′45″W
темп.,
°C
ветер,
м/с
пор.,
м/с
влажн.,
%
обл.,
%
осадки,
мм/ч
давл.,
гПа
погр.,
м
27 февраля, сб
сб2700:00+16св15940 0.0 1018170
03:00+14св14980 0.0 1017115
06:00+14всв11990 0.0 101823
09:00+22вюв25690 0.0 1020801
12:00+27ююв245037 0.1 10191691
15:00+23юв258640 2.2 1017721
18:00+22вюв27890 1.6 1017753
21:00+16в19940 1.7 1019436
28 февраля, вс
вс2800:00+14всв12970 0.0 101994
03:00+14всв01986 0.0 101723
06:00+14ююв119959 0.0 101826
09:00+21вюв256931 0.0 1018867
12:00+26юв35477 0.0 10171492
15:00+25юв35638 0.3 10141351
18:00+23юв366815 0.1 1013941
21:00+17юв11998 0.1 101552
1 марта, пн
пн100:00+16вюв1110031 0.0 101451
03:00+16ссв119933 0.0 101223
06:00+16всв11997 0.0 101323
09:00+24всв12674 0.0 1013578
12:00+29ю22440 0.0 10121732
15:00+29ю33474 0.4 10101804
18:00+24ююв258122 0.9 1010565
21:00+19в119914 1.1 101228
2 марта, вт
вт200:00+17св119915 0.0 101228
03:00+17св11998 0.0 101123
06:00+16ссв11993 0.0 101227
09:00+23ссв13761 0.0 1014446
12:00+29ююз22489 0.0 10131568
15:00+30ю234724 0.9 10111764
18:00+24ююв367740 0.6 1011699
21:00+20юв1210026 0.6 101455
3 марта, ср
ср300:00+19всв129978 0.0 1015111
03:00+17св119965 0.0 101438
06:00+17св119915 0.0 101525
09:00+24ссв12708 0.0 1016489
12:00+31ююз114715 0.0 10151503
15:00+28ююв235833 0.8 10131263
18:00+24ююв258027 0.4 1012620
21:00+20в119916 0.4 101573